Weather History for KGXY - January, 2013

Change the Weather History Date:

Sunday, January 6, 2013

  Actual Average Record
Temperature  
Mean Temperature 20 °F -  
Max Temperature 39 °F 39 °F - (-1)
Min Temperature 1 °F 13 °F - (-1)
Degree Days  
Heating Degree Days 45    
Moisture  
Dew Point 7 °F    
Average Humidity 66    
Maximum Humidity 85    
Minimum Humidity 36    
Precipitation  
Precipitation 0.00 in - - ()
Sea Level Pressure  
Sea Level Pressure 30.09 in    
Wind  
Wind Speed 1 mph (NW)    
Max Wind Speed 7 mph    
Max Gust Speed -    
Visibility 10 miles    
Events      
Averages and records for this station are not official NWS values.
T = Trace of Precipitation, MM = Missing Value Source: NWS Daily Summary

Daily Weather History Graph

Daily Weather History Graph

Search for Another Location

Airport or City:

Trip Planner

Search our weather history database for the weather conditions in past years. The results will help you decide how hot, cold, wet, or windy it might be!

Date:

Astronomy

Jan. 06, 2013 Rise Set
Actual Time 7:21 AM MST 4:47 PM MST
Civil Twilight 6:51 AM MST 5:18 PM MST
Nautical Twilight 6:17 AM MST 5:52 PM MST
Astronomical Twilight 5:44 AM MST 6:24 PM MST
Moon 1:38 AM MST (1/6) 12:16 PM MST (1/6)
Length of Visible Light 10h 26m
Length of Day
9h 25m
Waning Crescent, 32% of the Moon is Illuminated
Jan 6
Waning Crescent
Jan 11
New
Jan 18
First Quarter
Jan 26
Full
Feb 3
Last Quarter

Hourly Weather History & Observations

Time (MST) Temp. Windchill Dew Point Humidity Pressure Visibility Wind Dir Wind Speed Gust Speed Precip Events Conditions
12:35 AM 6.8 °F - 1.4 °F 79% 30.26 in 10.0 mi Calm Calm - N/A   Clear
12:55 AM 6.8 °F - 1.4 °F 79% 30.26 in 10.0 mi Calm Calm - N/A   Clear
1:35 AM 6.8 °F - -0.4 °F 72% 30.25 in 10.0 mi Calm Calm - N/A   Clear
1:55 AM 6.8 °F -4.8 °F 1.4 °F 79% 30.25 in 10.0 mi NW 6.9 mph - N/A   Clear
2:15 AM 6.8 °F -0.1 °F -0.4 °F 72% 30.25 in 10.0 mi NW 3.5 mph - N/A   Clear
2:35 AM 6.8 °F -3.5 °F 1.4 °F 79% 30.25 in 10.0 mi NW 5.8 mph - N/A   Clear
2:55 AM 6.8 °F -0.1 °F 1.4 °F 79% 30.25 in 10.0 mi NW 3.5 mph - N/A   Clear
3:15 AM 6.8 °F - 1.4 °F 79% 30.24 in 10.0 mi Calm Calm - N/A   Clear
3:35 AM 6.8 °F - 1.4 °F 79% 30.24 in 10.0 mi Calm Calm - N/A   Clear
3:55 AM 6.8 °F -0.1 °F -0.4 °F 72% 30.23 in 10.0 mi NW 3.5 mph - N/A   Clear
4:15 AM 6.8 °F - -0.4 °F 72% 30.23 in 10.0 mi Calm Calm - N/A   Clear
4:35 AM 5.0 °F - -2.2 °F 72% 30.22 in 10.0 mi Calm Calm - N/A   Clear
4:55 AM 3.2 °F -4.2 °F -2.2 °F 78% 30.21 in 10.0 mi NNW 3.5 mph - N/A   Clear
5:35 AM 3.2 °F - -4.0 °F 72% 30.20 in 10.0 mi Calm Calm - N/A   Clear
5:55 AM 3.2 °F - -2.2 °F 78% 30.21 in 10.0 mi Calm Calm - N/A   Clear
6:15 AM 3.2 °F - -2.2 °F 78% 30.21 in 10.0 mi Calm Calm - N/A   Clear
6:35 AM 3.2 °F - -2.2 °F 78% 30.21 in 9.0 mi Calm Calm - N/A   Clear
6:55 AM 1.4 °F - -4.0 °F 78% 30.20 in 10.0 mi Calm Calm - N/A   Clear
7:15 AM 1.4 °F - -5.8 °F 72% 30.20 in 10.0 mi Calm Calm - N/A   Clear
7:35 AM 1.4 °F - -2.2 °F 85% 30.20 in 10.0 mi Calm Calm - N/A   Clear
8:15 AM 6.8 °F - -0.4 °F 72% 30.19 in 10.0 mi Calm Calm - N/A   Clear
8:35 AM 8.6 °F - 3.2 °F 79% 30.20 in 10.0 mi Calm Calm - N/A   Clear
8:55 AM 10.4 °F - 3.2 °F 73% 30.20 in 10.0 mi Calm Calm - N/A   Clear
9:15 AM 12.2 °F - 6.8 °F 79% 30.19 in 10.0 mi Calm Calm - N/A   Clear
9:35 AM 15.8 °F - 6.8 °F 68% 30.19 in 10.0 mi Calm Calm - N/A   Clear
9:55 AM 17.6 °F - 8.6 °F 68% 30.19 in 10.0 mi Calm Calm - N/A   Clear
10:15 AM 17.6 °F - 8.6 °F 68% 30.17 in 10.0 mi Calm Calm - N/A   Clear
10:35 AM 19.4 °F - 10.4 °F 68% 30.16 in 10.0 mi Calm Calm - N/A   Clear
11:15 AM 24.8 °F - 12.2 °F 59% 30.12 in 10.0 mi Calm Calm - N/A   Clear
11:35 AM 28.4 °F - 12.2 °F 51% 30.10 in 10.0 mi Calm Calm - N/A   Clear
11:55 AM 30.2 °F - 14.0 °F 51% 30.08 in 10.0 mi Calm Calm - N/A   Clear
12:15 PM 33.8 °F - 14.0 °F 44% 30.06 in 10.0 mi Calm Calm - N/A   Clear
12:35 PM 35.6 °F - 15.8 °F 44% 30.05 in 10.0 mi Calm Calm - N/A   Clear
12:55 PM 37.4 °F - 15.8 °F 41% 30.03 in 10.0 mi Calm Calm - N/A   Clear
1:35 PM 39.2 °F - 15.8 °F 39% 30.01 in 10.0 mi Calm Calm - N/A   Clear
1:55 PM 39.2 °F - 15.8 °F 39% 30.00 in 10.0 mi Calm Calm - N/A   Clear
2:15 PM 39.2 °F 37.0 °F 14.0 °F 36% 30.00 in 10.0 mi South 3.5 mph - N/A   Clear
2:35 PM 37.4 °F - 14.0 °F 38% 29.99 in 10.0 mi Calm Calm - N/A   Clear
3:35 PM 37.4 °F - 14.0 °F 38% 29.98 in 10.0 mi Calm Calm - N/A   Clear
3:55 PM 35.6 °F - 14.0 °F 41% 29.97 in 10.0 mi Calm Calm - N/A   Clear
4:15 PM 35.6 °F - 14.0 °F 41% 29.97 in 5.0 mi Calm Calm - N/A   Clear
4:55 PM 30.2 °F - 12.2 °F 47% 29.96 in 10.0 mi Calm Calm - N/A   Clear
5:15 PM 28.4 °F - 12.2 °F 51% 29.96 in 10.0 mi Calm Calm - N/A   Clear
5:35 PM 26.6 °F - 12.2 °F 55% 29.96 in 10.0 mi Calm Calm - N/A   Clear
6:15 PM 21.2 °F - 12.2 °F 68% 29.95 in 10.0 mi Calm Calm - N/A   Clear
6:35 PM 21.2 °F - 10.4 °F 63% 29.96 in 10.0 mi Calm Calm - N/A   Clear
7:15 PM 17.6 °F 10.7 °F 10.4 °F 73% 29.95 in 10.0 mi NNW 4.6 mph - N/A   Clear
7:55 PM 19.4 °F - 10.4 °F 68% 29.95 in 10.0 mi Calm Calm - N/A   Clear
8:15 PM 17.6 °F - 10.4 °F 73% 29.95 in 10.0 mi Calm Calm - N/A   Clear
8:35 PM 19.4 °F - 10.4 °F 68% 29.95 in 10.0 mi Calm Calm - N/A   Clear
8:55 PM 17.6 °F - 10.4 °F 73% 29.94 in 10.0 mi Calm Calm - N/A   Clear
9:15 PM 17.6 °F - 10.4 °F 73% 29.94 in 10.0 mi Calm Calm - N/A   Clear
9:35 PM 17.6 °F - 10.4 °F 73% 29.93 in 10.0 mi Calm Calm - N/A   Clear
9:55 PM 19.4 °F - 10.4 °F 68% 29.93 in 10.0 mi Calm Calm - N/A   Clear
10:35 PM 19.4 °F - 12.2 °F 74% 29.93 in 10.0 mi Calm Calm - N/A   Clear
10:55 PM 19.4 °F - 14.0 °F 80% 29.93 in 10.0 mi Calm Calm - N/A   Clear
11:35 PM 21.2 °F - 14.0 °F 74% 29.94 in 10.0 mi Calm Calm - N/A   Clear
11:55 PM 21.2 °F - 15.8 °F 80% 29.93 in 10.0 mi Calm Calm - N/A   Clear